Regional Weather Roundup
Issued by NWS Charleston, SC

Current Version | Previous Version | Text Only | Print | Product List | Glossary Off
Versions: 1 2 3 4 5 6 7 8 9 10 11 12 13 14 15 16 17 18 19 20 21 22 23 24 25 26 27 28 29 30 31 32 33 34 35 36 37 38 39 40 41 42 43 44 45 46 47 48 49 50
000 ASUS42 KCHS 020512 RWRCHS REGIONAL WEATHER ROUNDUP NATIONAL WEATHER SERVICE CHARLESTON SC 100 AM EDT THU JUL 02 2015 NOTE: "FAIR" INDICATES FEW OR NO CLOUDS BELOW 12,000 FEET WITH NO SIGNIFICANT WEATHER AND/OR OBSTRUCTIONS TO VISIBILITY. NOT ALL STATIONS ARE QUALITY CONTROLLED BY THE NATIONAL WEATHER SERVICE. USE DATA WITH CAUTION...ESPECIALLY DEWPOINT OBSERVATIONS. SCZ027-030-031-034>040-042>050-020600- ...SOUTHEAST SOUTH CAROLINA... CITY SKY/WX TMP DP RH WIND PRES REMARKS N CHARLESTON PTCLDY 78 75 90 SW7 30.00F WATERFRONT PAR N/A 81 76 85 VRB3 29.99F MOUNT PLEASANT FAIR 81 77 89 SW3 30.01F JOHNS ISLAND FAIR 77 75 94 SW3 30.01F PINOPOLIS NOT AVBL MONCKS CORNER FAIR 77 70 78 SW3 30.00F SUMMERVILLE FAIR 73 73 100 CALM 30.01F BEAUFORT MCAS MOCLDY 73 68 84 W8 30.04S BEAUFORT ARPT MOCLDY 72 72 100 W8 30.04F HILTON HEAD IS CLOUDY 79 70 73 SW5 30.05F WALTERBORO PTCLDY 75 72 88 SW5 30.02F ALLENDALE FAIR 77 70 78 CALM 30.02F ...SOUTHERN MIDLANDS AND PEE DEE... CITY SKY/WX TMP DP RH WIND PRES REMARKS GEORGETOWN NOT AVBL KINGSTREE NOT AVBL ORANGEBURG MOCLDY 76 70 82 W3 30.01F BARNWELL FAIR 77 72 83 SW3 30.02F AIKEN NOT AVBL MANNING FAIR 77 70 78 SW3 30.00F COLUMBIA CLOUDY 77 65 66 W6 29.99F SUMTER NOT AVBL FLORENCE PTCLDY 77 71 82 SW9 29.98S MYRTLE BEACH CLEAR 81 70 69 SW7 30.01F N MYRTLE BEACH CLEAR 81 71 71 SW7 29.98F $$ GAZ063-065-086>088-099>101-113>116-118-119-134>141-150-020600- ...SOUTHEAST GEORGIA... CITY SKY/WX TMP DP RH WIND PRES REMARKS SAVANNAH ARPT MOCLDY 78 67 68 W8 30.06S HUNTER AAF MOCLDY 79 71 76 W5 30.04S FORT STEWART PTCLDY 79 69 69 W7 30.05S STATESBORO NOT AVBL SYLVANIA NOT AVBL CLAXTON NOT AVBL ...CSRA...CENTRAL AND FAR SOUTHEAST GEORGIA... CITY SKY/WX TMP DP RH WIND PRES REMARKS THOMSON NOT AVBL AUGUSTA-BUSH CLOUDY 75 66 73 SW5 30.01F AUGUSTA-DANIEL CLOUDY 75 64 68 SW5 30.03F SWAINSBORO NOT AVBL VIDALIA NOT AVBL EASTMAN NOT AVBL HAZLEHURST NOT AVBL ALMA MOCLDY 78 71 79 SW3 30.07F WAYCROSS NOT AVBL JESUP NOT AVBL BAXLEY NOT AVBL BRUNSWICK NOT AVBL SAINT SIMONS PTCLDY 80 70 71 SW7 30.07F $$ SCZ027-028-034-036>038-045-046-048>050-GAZ119-141-020600- ...LAKE AND SUPPLEMENTAL COASTAL OBSERVATIONS... STATION/POSITION TIME TEMP WIND PRES WAVE SWELL AIR SEA DIR/SP/G HT/PER HT/PER/DIR (UTC) (F) (DEG/KT/KT) (MB) (FT/S) (FT/S/D) UPR LAKE MARION NOT AVBL WINYAH BAY NOT AVBL LAKE MURRAY 0400 74 250/ 5/ 8 1015.6R ACE BASIN NERRS NOT AVBL FORT PULASKI 0400 82 84 260/ 5/ 7 1018.1R SAPELO ISLAND 0400 82 230/ 10 1018.0S $$ ANZ835-935-AMZ111-154-330-350-352-354-370-450-454-472-020600- ...C-MAN AND BUOY OBSERVATIONS... STATION/POSITION TIME TEMP WIND PRES WAVE SWELL AIR SEA DIR/SP/G HT/PER HT/PER/DIR (UTC) (F) (DEG/KT/KT) (MB) (FT/S) (FT/S/D) BUOY 41004 0450 77 82 180/ 17/ 21 1016.4F 4/ 6 2/ 8 BUOY 41008 0450 81 79 250/ 10/ 12 1018.2S 2/ 5 2/110/ 8 FOLLY BEACH CMAN 0500 78 230/ 7/ 9 1016.5F CAPERS NEARSHORE 0408 82 230/ 16/ 19 1016.8F FRIPP NEARSHORE 0400 82 290/ 14/ 16 1017.2R STATION/POSITION TIME TEMP WIND PRES WAVE SWELL AIR SEA DIR/SP/G HT/PER HT/PER/DIR (UTC) (F) (DEG/KT/KT) (MB) (FT/S) (FT/S/D) 5E ST. MARYS GA 0421 78 N/A 2/ 9 FRYING PAN BUOY 0450 81 80 220/ 16/ 19 1016.3F 4/ 7 3/180/ 7 BUOY 41025 0450 80 82 240/ 17/ 19 1014.4S 5/ 8 3/180/ 8 CAPE LOOKOUT NC 0400 79 230/ 11/ 14 1015.0R BUOY 41002 0450 82 80 240/ 16/ 17 1018.8F 6/ 8 3/230/ 8 BUOY 41010 0420 84 84 220/ 10/ 12 1020.4F ST AUGUSTINE FL 0500 78 74 260/ 7/ 9 1019.9F $$

USA.gov is the U.S. government's official web portal to all federal, state and local government web resources and services.